[[{"header":{"parameterUnit":"m.s-1","parameterCategory":2,"la1":30.2992,"la2":30.254,"lo1":-89.0895,"lo2":-89.0443,"dy":0.0025,"dx":0.0025,"nx":19,"ny":19,"refTime":"2026-04-05T21:00:00:Z","depth":"0","parameterNumber":2,"parameterNumberName":"U-component_of_CURRENTS"},"data":[0,0,0,-0.2661,-0.2663,-0.2741,-0.2741,-0.2739,-0.2739,0,0,0,0,0,0,0,0,0,0,0,-0.2613,-0.2614,-0.2661,-0.2663,-0.2741,-0.2741,-0.2739,-0.2739,0,0,0,0,0,0,0,0,0,0,0,-0.2613,-0.2614,-0.2614,-0.2664,-0.2741,-0.2741,-0.2739,-0.2703,0,0,0,0,0,0,0,0,0,0,-0.2639,-0.262,-0.2614,-0.2614,-0.2664,-0.2741,-0.2741,-0.2702,-0.2705,-0.2679,0,-0.2687,0,-0.2725,-0.2738,-0.2737,0,0,0,-0.2652,-0.2618,-0.2638,-0.2614,-0.2665,-0.2741,-0.2703,-0.2705,-0.2708,-0.2682,-0.2687,-0.2689,-0.2725,-0.2737,-0.2737,-0.2732,-0.2732,0,0,-0.2648,-0.2628,-0.2636,-0.264,-0.2678,-0.27,-0.2705,-0.2708,-0.2706,-0.2687,-0.2689,-0.2725,-0.2737,-0.2737,-0.2732,-0.2732,0,0,0,-0.2643,-0.2625,-0.2647,-0.2638,-0.2667,-0.2703,-0.2709,-0.2705,-0.2712,-0.269,-0.2725,-0.2737,-0.2737,-0.2731,-0.2732,-0.2727,0,0,0,-0.264,-0.2623,-0.2644,-0.2633,-0.2668,-0.2705,-0.2706,-0.2712,-0.2715,-0.2725,-0.2737,-0.2737,-0.2731,-0.2731,-0.2727,-0.2674,0,0,0,-0.2611,-0.2621,-0.2627,-0.2632,-0.2674,-0.2706,-0.2714,-0.2714,-0.2736,-0.2737,-0.2737,-0.2731,-0.2731,-0.2727,-0.2675,-0.2573,0,0,0,-0.2591,-0.2614,-0.2626,-0.2665,-0.2673,-0.2733,-0.2714,-0.2755,-0.2762,-0.2737,-0.2731,-0.2732,-0.2727,-0.2676,-0.2576,-0.2357,-0.2328,0,0,-0.2613,-0.2615,-0.2642,-0.2657,-0.2709,-0.2722,-0.2756,-0.2755,-0.275,-0.2721,-0.2722,-0.2727,-0.2676,-0.2574,-0.2371,-0.234,0,0,0,-0.2646,-0.2648,-0.2674,-0.2702,-0.2749,-0.2746,-0.2775,-0.2768,-0.2751,-0.2758,-0.2733,-0.2699,-0.2635,-0.251,-0.2487,-0.238,-0.2733,-0.2733,-0.2733,-0.2608,-0.2645,-0.2661,-0.2696,-0.2728,-0.2764,-0.275,-0.2732,-0.2763,-0.2754,-0.2703,-0.2627,-0.2498,-0.2477,-0.2372,-0.2738,-0.2738,-0.2738,-0.2738,-0.2582,-0.2549,-0.2603,-0.2625,-0.2642,-0.2659,-0.268,-0.2695,-0.2639,-0.2698,-0.2636,-0.2521,-0.245,-0.2348,-0.2738,-0.2738,-0.2738,-0.2738,-0.2738,-0.2494,-0.2467,-0.2504,-0.2494,-0.2498,-0.2555,-0.2491,-0.2547,-0.2577,-0.2545,-0.2359,-0.2357,-0.2251,-0.2514,-0.2513,-0.2512,-0.2512,-0.2511,-0.2511,-0.2335,-0.2369,-0.2315,-0.234,-0.2321,-0.2319,-0.2363,-0.2327,-0.2272,-0.2284,-0.2282,-0.2192,-0.2556,-0.2547,-0.2501,-0.2503,-0.2504,-0.2505,-0.2506,-0.2122,-0.2149,-0.2076,-0.2047,-0.2026,-0.1943,-0.2044,-0.1946,-0.1925,-0.1845,-0.1818,-0.2123,-0.2074,-0.2091,-0.207,-0.1903,-0.1903,-0.1903,-0.1902,-0.1934,-0.1957,-0.1821,-0.1757,-0.1711,-0.175,-0.1553,-0.1521,-0.1486,-0.1427,-0.1516,-0.1542,-0.1571,-0.1498,-0.1529,-0.1499,-0.119,-0.119,-0.1189,-0.1729,-0.1744,-0.1588,-0.1598,-0.1564,-0.1513,-0.1295,-0.1155,-0.112,-0.1161,-0.141,-0.144,-0.1493,-0.1547,-0.1453,-0.1504,-0.1464,0,0]},{"header":{"parameterUnit":"m.s-1","parameterCategory":2,"la1":30.2992,"la2":30.254,"lo1":-89.0895,"lo2":-89.0443,"dy":0.0025,"dx":0.0025,"nx":19,"ny":19,"refTime":"2026-04-05T21:00:00:Z","depth":"0","parameterNumber":3,"parameterNumberName":"V-component_of_CURRENTS"},"data":[0,0,0,-0.0936,-0.0935,-0.0896,-0.0896,-0.0755,-0.0753,0,0,0,0,0,0,0,0,0,0,0,-0.0945,-0.0945,-0.0936,-0.0935,-0.0896,-0.0896,-0.0755,-0.0753,0,0,0,0,0,0,0,0,0,0,0,-0.0945,-0.0945,-0.0945,-0.0935,-0.0896,-0.0896,-0.0755,-0.0804,0,0,0,0,0,0,0,0,0,0,-0.0852,-0.0881,-0.0945,-0.0945,-0.0935,-0.0896,-0.0896,-0.0807,-0.0801,-0.0751,0,-0.0753,0,-0.0755,-0.0743,-0.0743,0,0,0,-0.0921,-0.0887,-0.0877,-0.0945,-0.0935,-0.0897,-0.091,-0.0804,-0.0797,-0.0742,-0.0752,-0.0747,-0.0753,-0.0742,-0.0741,-0.0613,-0.0613,0,0,-0.0923,-0.0931,-0.0882,-0.0873,-0.0933,-0.0911,-0.0909,-0.0801,-0.0794,-0.0751,-0.0744,-0.0751,-0.0741,-0.074,-0.0614,-0.0613,0,0,0,-0.0939,-0.0933,-0.0927,-0.0878,-0.0881,-0.0911,-0.0908,-0.0799,-0.0798,-0.0743,-0.0749,-0.074,-0.0738,-0.0614,-0.0614,-0.0657,0,0,0,-0.094,-0.0943,-0.0929,-0.0932,-0.0884,-0.0853,-0.0908,-0.0805,-0.0794,-0.075,-0.074,-0.0737,-0.0614,-0.0614,-0.0656,-0.0671,0,0,0,-0.0946,-0.0944,-0.0943,-0.0933,-0.0923,-0.0855,-0.0848,-0.0803,-0.0797,-0.0743,-0.0737,-0.0614,-0.0614,-0.0656,-0.067,-0.0611,0,0,0,-0.0949,-0.0968,-0.0943,-0.0957,-0.0924,-0.09,-0.0849,-0.0816,-0.0776,-0.0739,-0.0614,-0.0614,-0.0655,-0.0669,-0.0611,-0.0567,-0.0561,0,0,-0.098,-0.0972,-0.098,-0.0957,-0.0957,-0.0904,-0.0871,-0.0797,-0.0744,-0.0641,-0.0639,-0.0656,-0.067,-0.0611,-0.0532,-0.0527,0,0,0,-0.0994,-0.1004,-0.0998,-0.0988,-0.0955,-0.091,-0.084,-0.0789,-0.0703,-0.0719,-0.0631,-0.0638,-0.06,-0.0573,-0.0569,-0.0429,-0.0611,-0.0611,-0.0611,-0.1039,-0.1025,-0.1034,-0.1009,-0.098,-0.0901,-0.0844,-0.0754,-0.0708,-0.0672,-0.0655,-0.0617,-0.059,-0.0586,-0.0443,-0.0636,-0.0636,-0.0636,-0.0636,-0.1089,-0.1091,-0.1059,-0.1067,-0.1,-0.0959,-0.0829,-0.0781,-0.0658,-0.0654,-0.0613,-0.0599,-0.0585,-0.0433,-0.0638,-0.0638,-0.0638,-0.0638,-0.0637,-0.1128,-0.1122,-0.1128,-0.111,-0.1068,-0.0989,-0.0902,-0.0808,-0.0695,-0.0657,-0.0573,-0.0572,-0.0449,-0.0625,-0.0625,-0.0625,-0.0625,-0.0625,-0.0625,-0.1149,-0.1152,-0.1162,-0.1145,-0.1131,-0.1068,-0.0936,-0.0842,-0.0686,-0.0599,-0.0598,-0.0408,-0.0612,-0.0625,-0.0622,-0.0622,-0.0623,-0.0623,-0.0623,-0.1161,-0.1169,-0.1191,-0.1192,-0.1154,-0.1089,-0.0981,-0.0774,-0.0656,-0.0563,-0.0328,-0.0538,-0.0505,-0.0507,-0.0515,-0.0484,-0.0484,-0.0484,-0.0484,-0.1154,-0.1165,-0.1184,-0.1197,-0.117,-0.1091,-0.092,-0.0703,-0.0394,-0.0226,-0.0192,-0.0184,-0.0196,-0.0144,-0.0154,-0.0154,-0.0032,-0.0031,-0.0031,-0.1126,-0.1149,-0.1157,-0.1193,-0.1181,-0.1076,-0.0895,-0.0604,-0.0172,0.0001,-0.0002,-0.0021,0.0001,-0.0029,0.0057,0.0031,0.0031,0,0]}],[{"header":{"parameterUnit":"m.s-1","parameterCategory":2,"la1":30.2992,"la2":30.254,"lo1":-89.0895,"lo2":-89.0443,"dy":0.0025,"dx":0.0025,"nx":19,"ny":19,"refTime":"2026-04-05T21:00:00:Z","depth":"2","parameterNumber":2,"parameterNumberName":"U-component_of_CURRENTS"},"data":[0,0,0,-0.2186,-0.2188,-0.2263,-0.2263,-0.2297,-0.2297,0,0,0,0,0,0,0,0,0,0,0,-0.2167,-0.2167,-0.2186,-0.2188,-0.2263,-0.2263,-0.2297,-0.2297,0,0,0,0,0,0,0,0,0,0,0,-0.2166,-0.2167,-0.2168,-0.2188,-0.2263,-0.2263,-0.2297,-0.2257,0,0,0,0,0,0,0,0,0,0,-0.2193,-0.2174,-0.2167,-0.2168,-0.2189,-0.2263,-0.2263,-0.2256,-0.226,-0.2244,0,-0.2261,0,-0.2273,-0.2298,-0.2298,0,0,0,-0.2193,-0.2171,-0.2197,-0.2168,-0.2189,-0.2263,-0.223,-0.2259,-0.2263,-0.2248,-0.2261,-0.2263,-0.2274,-0.2298,-0.2298,-0.2335,-0.2335,0,0,-0.2189,-0.2173,-0.2194,-0.2199,-0.2214,-0.2228,-0.2233,-0.2262,-0.2263,-0.2262,-0.2264,-0.2275,-0.2298,-0.2298,-0.2334,-0.2335,0,0,0,-0.2173,-0.217,-0.2196,-0.2198,-0.2213,-0.223,-0.2236,-0.2262,-0.2273,-0.2265,-0.2275,-0.2298,-0.2298,-0.2334,-0.2334,-0.2356,0,0,0,-0.2171,-0.2161,-0.2194,-0.2185,-0.2213,-0.2245,-0.2235,-0.2271,-0.2275,-0.2275,-0.2298,-0.2298,-0.2333,-0.2334,-0.2354,-0.2305,0,0,0,-0.2162,-0.2159,-0.2172,-0.2184,-0.2214,-0.2245,-0.2258,-0.2273,-0.228,-0.2298,-0.2298,-0.2333,-0.2334,-0.2353,-0.2305,-0.2226,0,0,0,-0.2139,-0.2163,-0.2171,-0.2201,-0.2213,-0.2267,-0.2258,-0.2297,-0.2316,-0.2298,-0.2333,-0.2334,-0.2353,-0.2305,-0.2228,-0.2019,-0.1997,0,0,-0.2157,-0.2165,-0.2183,-0.2193,-0.2235,-0.2256,-0.2299,-0.232,-0.2321,-0.2319,-0.2321,-0.2355,-0.2305,-0.2227,-0.2069,-0.2044,0,0,0,-0.2181,-0.2189,-0.2204,-0.2231,-0.2271,-0.229,-0.2328,-0.2336,-0.2358,-0.2335,-0.2366,-0.2333,-0.2283,-0.2161,-0.2143,-0.2338,-0.2338,-0.2338,-0.2338,-0.2153,-0.2188,-0.2208,-0.2247,-0.2277,-0.2326,-0.2331,-0.2348,-0.2377,-0.2393,-0.2362,-0.2326,-0.2202,-0.2184,-0.2406,-0.2406,-0.2406,-0.2406,-0.2406,-0.2142,-0.2134,-0.2188,-0.2219,-0.2257,-0.2297,-0.2326,-0.2351,-0.233,-0.2383,-0.2335,-0.2204,-0.2163,-0.2408,-0.2408,-0.2407,-0.2407,-0.2407,-0.2407,-0.2084,-0.2081,-0.2122,-0.2152,-0.2189,-0.2246,-0.2209,-0.2267,-0.2298,-0.2278,-0.2106,-0.2103,-0.2274,-0.2265,-0.2264,-0.2264,-0.2263,-0.2263,-0.2262,-0.1981,-0.2024,-0.2006,-0.206,-0.2061,-0.2078,-0.2127,-0.2093,-0.2049,-0.2057,-0.2055,-0.2275,-0.228,-0.2263,-0.2254,-0.2256,-0.2257,-0.2258,-0.2258,-0.1853,-0.1878,-0.184,-0.1834,-0.1839,-0.1763,-0.1855,-0.1763,-0.1752,-0.1678,-0.1905,-0.1917,-0.1859,-0.1873,-0.1845,-0.1728,-0.1728,-0.1728,-0.1728,-0.1729,-0.1753,-0.1653,-0.1602,-0.1571,-0.1592,-0.1405,-0.1354,-0.1417,-0.1426,-0.144,-0.1462,-0.1489,-0.1414,-0.1438,-0.1403,-0.1171,-0.117,-0.117,-0.1597,-0.1597,-0.1475,-0.1471,-0.1437,-0.1376,-0.1156,-0.0971,-0.0984,-0.1155,-0.1419,-0.1676,-0.1748,-0.1775,-0.1695,-0.172,-0.1678,0,0]},{"header":{"parameterUnit":"m.s-1","parameterCategory":2,"la1":30.2992,"la2":30.254,"lo1":-89.0895,"lo2":-89.0443,"dy":0.0025,"dx":0.0025,"nx":19,"ny":19,"refTime":"2026-04-05T21:00:00:Z","depth":"2","parameterNumber":3,"parameterNumberName":"V-component_of_CURRENTS"},"data":[0,0,0,-0.0492,-0.0492,-0.0452,-0.0452,-0.0341,-0.034,0,0,0,0,0,0,0,0,0,0,0,-0.0507,-0.0507,-0.0492,-0.0492,-0.0452,-0.0452,-0.0341,-0.034,0,0,0,0,0,0,0,0,0,0,0,-0.0507,-0.0507,-0.0507,-0.0492,-0.0452,-0.0452,-0.0342,-0.0383,0,0,0,0,0,0,0,0,0,0,-0.0427,-0.0451,-0.0507,-0.0507,-0.0491,-0.0452,-0.0452,-0.0385,-0.038,-0.0347,0,-0.0354,0,-0.0349,-0.0333,-0.0332,0,0,0,-0.0476,-0.0455,-0.0452,-0.0507,-0.0491,-0.0452,-0.0465,-0.0383,-0.0377,-0.034,-0.0353,-0.0349,-0.0348,-0.0332,-0.0332,-0.0276,-0.0277,0,0,-0.0478,-0.0487,-0.0456,-0.0449,-0.0497,-0.0467,-0.0464,-0.038,-0.0375,-0.0353,-0.0347,-0.0346,-0.0331,-0.0331,-0.0276,-0.0277,0,0,0,-0.0495,-0.0488,-0.0487,-0.0453,-0.0453,-0.0466,-0.0463,-0.0378,-0.0381,-0.0346,-0.0344,-0.0331,-0.0329,-0.0276,-0.0276,-0.0339,0,0,0,-0.0496,-0.0499,-0.0489,-0.0491,-0.0456,-0.0422,-0.0464,-0.0387,-0.0377,-0.0345,-0.0331,-0.0328,-0.0276,-0.0276,-0.0337,-0.0357,0,0,0,-0.0506,-0.05,-0.0503,-0.0492,-0.0483,-0.0424,-0.0421,-0.0384,-0.0376,-0.0332,-0.0328,-0.0276,-0.0276,-0.0335,-0.0354,-0.0307,0,0,0,-0.0505,-0.0533,-0.0503,-0.0527,-0.0484,-0.0476,-0.0421,-0.0403,-0.0373,-0.033,-0.0276,-0.0276,-0.0334,-0.0351,-0.0306,-0.0255,-0.0255,0,0,-0.0546,-0.0538,-0.0553,-0.0525,-0.0537,-0.0479,-0.0474,-0.0414,-0.0365,-0.0296,-0.0295,-0.0338,-0.0353,-0.0306,-0.0284,-0.0283,0,0,0,-0.0569,-0.0584,-0.0578,-0.0578,-0.0552,-0.0523,-0.0466,-0.0426,-0.0373,-0.0352,-0.033,-0.0338,-0.0306,-0.0274,-0.0273,-0.0279,-0.0279,-0.0279,-0.0279,-0.0624,-0.0618,-0.0642,-0.063,-0.0612,-0.0553,-0.0514,-0.045,-0.0404,-0.0393,-0.0384,-0.0386,-0.0355,-0.0353,-0.0382,-0.0382,-0.0382,-0.0382,-0.0382,-0.0693,-0.0716,-0.0694,-0.0722,-0.0677,-0.0665,-0.056,-0.052,-0.0433,-0.042,-0.0386,-0.0337,-0.0356,-0.0387,-0.0386,-0.0386,-0.0385,-0.0385,-0.0385,-0.0743,-0.0756,-0.0772,-0.0796,-0.0787,-0.0728,-0.0671,-0.0592,-0.0489,-0.0465,-0.0371,-0.0369,-0.0395,-0.0437,-0.0436,-0.0436,-0.0436,-0.0436,-0.0436,-0.0788,-0.0803,-0.0842,-0.0862,-0.087,-0.0837,-0.0727,-0.0645,-0.0503,-0.042,-0.0418,-0.0403,-0.0401,-0.0396,-0.0435,-0.0435,-0.0435,-0.0435,-0.0435,-0.085,-0.0855,-0.0907,-0.093,-0.0931,-0.088,-0.0786,-0.0593,-0.0491,-0.0402,-0.0362,-0.0365,-0.0322,-0.0321,-0.0313,-0.0328,-0.0328,-0.0328,-0.0328,-0.088,-0.0891,-0.0938,-0.0965,-0.0963,-0.0889,-0.0726,-0.0516,-0.0346,-0.0253,-0.0256,-0.0257,-0.0262,-0.0215,-0.0217,-0.0207,-0.0194,-0.0193,-0.0193,-0.0901,-0.0912,-0.0944,-0.0974,-0.0973,-0.0875,-0.0689,-0.0387,-0.0152,-0.0189,-0.0245,-0.0316,-0.0327,-0.0332,-0.0266,-0.0267,-0.0252,0,0]}],[{"header":{"parameterUnit":"m.s-1","parameterCategory":2,"la1":30.2992,"la2":30.254,"lo1":-89.0895,"lo2":-89.0443,"dy":0.0025,"dx":0.0025,"nx":19,"ny":19,"refTime":"2026-04-05T21:00:00:Z","depth":"4","parameterNumber":2,"parameterNumberName":"U-component_of_CURRENTS"},"data":[0,0,0,-0.1251,-0.1253,-0.1327,-0.1328,-0.1409,-0.141,0,0,0,0,0,0,0,0,0,0,0,-0.1232,-0.1233,-0.1251,-0.1253,-0.1327,-0.1328,-0.1409,-0.141,0,0,0,0,0,0,0,0,0,0,0,-0.1232,-0.1233,-0.1234,-0.1253,-0.1327,-0.1328,-0.1409,-0.1355,0,0,0,0,0,0,0,0,0,0,-0.1284,-0.1267,-0.1233,-0.1234,-0.1254,-0.1327,-0.1328,-0.1353,-0.1359,-0.1373,0,-0.1396,0,-0.1405,-0.1416,-0.1416,0,0,0,-0.1249,-0.1262,-0.1286,-0.1234,-0.1255,-0.1327,-0.1293,-0.1356,-0.1363,-0.1381,-0.1397,-0.14,-0.1406,-0.1416,-0.1416,-0.1489,-0.1489,0,0,-0.1245,-0.124,-0.1281,-0.129,-0.1289,-0.129,-0.1295,-0.136,-0.1371,-0.1398,-0.1402,-0.1407,-0.1417,-0.1417,-0.1489,-0.1489,0,0,0,-0.1236,-0.1237,-0.1259,-0.1287,-0.1302,-0.1293,-0.1298,-0.1368,-0.1377,-0.1403,-0.1408,-0.1417,-0.1418,-0.1488,-0.1489,-0.1527,0,0,0,-0.1233,-0.1232,-0.1258,-0.1254,-0.1301,-0.1337,-0.1305,-0.1373,-0.138,-0.1408,-0.1417,-0.1419,-0.1488,-0.1489,-0.1526,-0.1502,0,0,0,-0.1226,-0.1231,-0.1245,-0.1254,-0.1288,-0.1336,-0.1349,-0.1375,-0.1384,-0.1416,-0.1419,-0.1488,-0.1488,-0.1525,-0.1501,-0.1466,0,0,0,-0.1209,-0.1232,-0.1245,-0.1279,-0.1287,-0.1339,-0.1348,-0.1396,-0.1427,-0.1418,-0.1488,-0.1489,-0.1524,-0.1501,-0.1466,-0.1277,0,0,0,-0.1222,-0.1233,-0.1253,-0.1267,-0.1311,-0.1327,-0.1383,-0.1431,-0.1434,-0.1465,-0.1467,-0.1526,-0.1501,-0.1466,-0.1303,0,0,0,0,-0.1247,-0.1262,-0.1279,-0.1313,-0.135,-0.1386,-0.1433,-0.1445,-0.1484,-0.1455,-0.1524,-0.1506,-0.1482,-0.1373,-0.1491,-0.1491,-0.1491,-0.149,-0.149,-0.1248,-0.1273,-0.1304,-0.1343,-0.1381,-0.1437,-0.146,-0.1483,-0.1512,-0.1528,-0.1538,-0.1532,-0.1421,-0.1558,-0.1558,-0.1559,-0.1559,-0.1559,-0.1559,-0.1253,-0.1261,-0.1313,-0.1353,-0.1404,-0.1458,-0.1499,-0.1522,-0.1532,-0.1554,-0.153,-0.1423,-0.1563,-0.1562,-0.1561,-0.1561,-0.1561,-0.156,-0.156,-0.1227,-0.1231,-0.1279,-0.1337,-0.1399,-0.1468,-0.1463,-0.1518,-0.1534,-0.1534,-0.1393,-0.1527,-0.152,-0.1534,-0.1534,-0.1533,-0.1533,-0.1533,-0.1533,-0.1168,-0.1211,-0.1239,-0.1315,-0.1344,-0.139,-0.1439,-0.1414,-0.1457,-0.1374,-0.1535,-0.1521,-0.1522,-0.1516,-0.1529,-0.153,-0.153,-0.1531,-0.1531,-0.1101,-0.1141,-0.1153,-0.1184,-0.1229,-0.124,-0.1323,-0.125,-0.1201,-0.1145,-0.1273,-0.1287,-0.1235,-0.1242,-0.1225,-0.1152,-0.1149,-0.1147,0,-0.1044,-0.1071,-0.1057,-0.105,-0.1035,-0.112,-0.1013,-0.1017,-0.1047,-0.1025,-0.1201,-0.1349,-0.1358,-0.1305,-0.1307,-0.1288,0,0,0,-0.099,-0.0992,-0.0944,-0.0954,-0.0925,-0.0904,-0.0971,-0.0915,-0.1077,-0.0963,-0.1085,-0.1102,-0.1348,-0.1519,-0.1471,-0.1472,-0.1459,0,0]},{"header":{"parameterUnit":"m.s-1","parameterCategory":2,"la1":30.2992,"la2":30.254,"lo1":-89.0895,"lo2":-89.0443,"dy":0.0025,"dx":0.0025,"nx":19,"ny":19,"refTime":"2026-04-05T21:00:00:Z","depth":"4","parameterNumber":3,"parameterNumberName":"V-component_of_CURRENTS"},"data":[0,0,0,-0.0184,-0.0184,-0.0174,-0.0174,-0.0139,-0.0139,0,0,0,0,0,0,0,0,0,0,0,-0.0186,-0.0186,-0.0184,-0.0184,-0.0174,-0.0174,-0.0139,-0.0139,0,0,0,0,0,0,0,0,0,0,0,-0.0186,-0.0186,-0.0186,-0.0184,-0.0174,-0.0174,-0.0139,-0.015,0,0,0,0,0,0,0,0,0,0,-0.0161,-0.0167,-0.0186,-0.0186,-0.0184,-0.0174,-0.0174,-0.015,-0.0149,-0.0141,0,-0.0147,0,-0.0148,-0.0137,-0.0137,0,0,0,-0.0173,-0.0168,-0.0171,-0.0186,-0.0184,-0.0174,-0.0175,-0.0149,-0.0148,-0.014,-0.0147,-0.0146,-0.0147,-0.0137,-0.0137,-0.0146,-0.0146,0,0,-0.0173,-0.0176,-0.0172,-0.0171,-0.0191,-0.0176,-0.0175,-0.0149,-0.0147,-0.0147,-0.0145,-0.0147,-0.0137,-0.0136,-0.0146,-0.0146,0,0,0,-0.0183,-0.0176,-0.018,-0.0172,-0.0175,-0.0176,-0.0175,-0.0148,-0.0152,-0.0145,-0.0146,-0.0137,-0.0136,-0.0145,-0.0146,-0.0201,0,0,0,-0.0183,-0.0182,-0.018,-0.018,-0.0176,-0.0164,-0.0175,-0.0153,-0.0151,-0.0146,-0.0137,-0.0136,-0.0145,-0.0146,-0.0199,-0.0224,0,0,0,-0.0185,-0.0182,-0.0186,-0.018,-0.0182,-0.0165,-0.0165,-0.0153,-0.0152,-0.0137,-0.0136,-0.0145,-0.0146,-0.0197,-0.022,-0.0196,0,0,0,-0.0181,-0.0208,-0.0186,-0.0218,-0.0182,-0.0203,-0.0166,-0.0173,-0.0166,-0.0136,-0.0145,-0.0146,-0.0197,-0.0218,-0.0194,-0.0159,0,0,0,-0.0219,-0.0213,-0.0234,-0.0214,-0.0249,-0.0203,-0.0229,-0.0201,-0.0171,-0.0149,-0.015,-0.02,-0.022,-0.0195,-0.0201,0,0,0,0,-0.0249,-0.0263,-0.0269,-0.0282,-0.0282,-0.0273,-0.0245,-0.0227,-0.0208,-0.0172,-0.0199,-0.0209,-0.0192,-0.0168,-0.0149,-0.0149,-0.0149,-0.0149,-0.0149,-0.0293,-0.03,-0.0335,-0.034,-0.0346,-0.0323,-0.0312,-0.0279,-0.0249,-0.0249,-0.0254,-0.0274,-0.0253,-0.0252,-0.0252,-0.0252,-0.0253,-0.0253,-0.0253,-0.0352,-0.0376,-0.0378,-0.0416,-0.0404,-0.0416,-0.0375,-0.0349,-0.0318,-0.0299,-0.0278,-0.0229,-0.0258,-0.0257,-0.0256,-0.0256,-0.0255,-0.0255,-0.0255,-0.0381,-0.0395,-0.042,-0.0467,-0.0486,-0.0471,-0.046,-0.0427,-0.0367,-0.0362,-0.029,-0.0294,-0.0287,-0.0338,-0.0338,-0.0338,-0.0338,-0.0338,-0.0338,-0.04,-0.0425,-0.0471,-0.0516,-0.0543,-0.055,-0.0509,-0.0466,-0.0405,-0.0345,-0.0366,-0.0301,-0.0299,-0.0291,-0.0338,-0.0338,-0.0338,-0.0338,-0.0338,-0.0437,-0.0454,-0.0514,-0.0553,-0.0598,-0.0591,-0.0563,-0.0446,-0.039,-0.0323,-0.0313,-0.0315,-0.0279,-0.0277,-0.0266,-0.0308,-0.0308,-0.0307,0,-0.0458,-0.0472,-0.0539,-0.0587,-0.0609,-0.0603,-0.0513,-0.0445,-0.0359,-0.0354,-0.0389,-0.0384,-0.0382,-0.0348,-0.0345,-0.0337,0,0,0,-0.048,-0.0493,-0.0536,-0.0583,-0.0606,-0.0519,-0.0478,-0.0428,-0.0386,-0.0306,-0.03,-0.0302,-0.0346,-0.0339,-0.0286,-0.0283,-0.0267,0,0]}]]